ONEWEB-0112

Last updated on Sun Apr 25 2021 00:02:03 GMT+0000 (Coordinated Universal Time)

1 48051U 21025K 21114.58336806 -.01084938 00000-0 -45109-1 0 9991 2 48051 87.4225 339.3373 0007267 144.0304 141.0150 15.26754502 1771

Satellite not in orbit